Theta_e
352 347 350 351 350 347 344 342 340 338 338 337 338 339 339 337 336 337 334 334 332 330
351 351 350 353 350 344 342 338 337 337 335 335 336 336 337 334 334 334 331 330 329 327
352 349 349 344 343 342 339 337 334 332 332 333 334 334 335 333 334 330 325 323 324 323
347 343 342 341 340 339 336 333 329 329 330 332 332 333 333 331 328 324 321 322 322 322
343 340 337 337 337 336 332 327 324 327 329 330 331 332 331 328 326 320 318 320 322 321
339 336 334 334 333 331 325 322 321 327 329 328 327 325 327 327 322 317 319 320 320 321
335 334 332 333 331 326 322 321 323 327 328 327 325 324 324 324 322 319 318 320 320 322
336 335 331 330 326 321 319 320 324 325 326 326 325 320 323 322 322 320 319 319 319 320
332 329 327 325 321 320 317 317 321 323 323 324 323 321 319 320 319 318 318 317 318 319
328 326 323 322 320 318 315 315 318 319 320 321 324 322 323 320 320 318 318 318 318 316
327 323 322 320 318 315 314 316 316 317 318 319 320 319 324 324 325 320 318 318 320 320
327 325 323 318 315 316 317 318 318 318 319 318 319 316 317 325 326 323 321 320 320 320
328 326 322 320 318 320 321 321 319 320 320 318 319 313 314 320 322 323 321 323 322 315
329 327 325 323 322 322 322 321 321 321 322 323 324 322 314 313 320 317 317 316 317 318
Wind_Speed
9 6 7 8 7 6 5 5 6 6 5 5 4 4 4 4 4 5 6 7 6 4
10 9 7 8 8 6 7 7 7 6 5 5 5 5 5 5 5 5 5 5 5 4
10 8 8 9 10 9 8 8 7 6 5 5 5 5 5 5 6 6 5 4 5 4
11 11 10 9 10 9 9 7 7 6 5 6 6 5 6 7 6 7 6 5 5 6
11 11 11 10 10 10 9 6 6 7 7 7 7 6 6 6 6 6 6 6 6 6
12 11 10 11 10 9 9 8 6 7 8 7 7 6 6 7 7 7 6 6 7 7
12 11 10 10 10 9 8 8 8 7 7 7 6 7 8 8 7 7 6 6 7 7
13 11 11 10 10 9 7 6 7 8 7 6 7 6 7 7 7 7 6 6 5 7
16 15 13 12 11 10 8 8 7 7 7 7 4 9 7 6 6 6 6 5 5 5
18 16 12 12 11 9 10 8 7 7 6 7 5 6 10 8 5 5 5 4 4 2
14 15 14 12 10 10 9 9 8 7 6 5 4 5 9 10 6 5 4 4 2 2
16 16 16 14 13 11 10 9 8 7 7 5 5 5 5 8 6 6 6 4 3 2
15 17 17 14 13 11 10 9 7 8 7 6 6 5 6 7 4 6 5 5 4 6
13 14 15 15 12 11 11 9 9 8 7 7 7 7 7 8 5 4 5 4 4 4
Wind_Direction
184 202 198 191 169 171 154 135 133 115 100 100 100 100 110 113 100 92 83 75 59 59
182 192 181 162 153 143 136 132 125 122 115 113 116 115 115 103 100 89 77 74 63 44
181 170 158 150 141 145 134 126 127 121 121 111 104 105 110 114 100 94 71 57 55 43
158 148 146 141 138 135 128 131 123 120 117 108 102 106 108 101 101 89 80 69 67 66
142 142 139 136 131 134 125 123 124 130 118 113 110 112 122 113 102 89 80 76 78 64
141 138 135 135 134 131 131 131 133 132 130 130 121 121 114 109 100 89 85 82 77 67
146 146 144 139 138 142 138 134 136 135 130 132 123 112 117 121 118 107 93 81 71 66
147 142 134 139 134 131 131 125 131 136 136 141 141 135 136 131 117 109 100 89 89 73
151 143 145 147 142 138 135 143 151 155 152 154 163 140 148 137 117 115 126 122 107 100
146 144 143 143 146 149 150 154 159 163 167 154 156 178 174 160 139 136 138 137 119 102
147 134 139 151 157 153 151 156 168 170 175 156 147 146 177 175 172 163 160 162 133 33
158 151 150 157 164 157 156 164 170 169 166 164 138 133 157 185 187 194 202 206 233 294
168 154 152 158 169 162 170 166 173 168 168 148 157 169 172 197 177 185 210 216 224 219
169 162 153 160 167 164 168 165 180 178 175 188 193 183 193 209 198 200 197 218 216 234